JBU472 KFLL-KLGA

Flight info

Callsign JBU472
Flight time N/A
Altitude 37000
Route FEALX2 ETECK GRUBR Y299 SEELO GARIC Q107 HURTS PROUD2
Aircraft A320/M-SDE3FGHIRWY/LB1

Departure

Time 2026-05-03 22:24
Airport Fort Lauderdale Hollywood International Airport (KFLL)

Arrival

Time N/A
Airport LaGuardia Airport (KLGA)
Time Latitude Longitude Altitude Speed Heading
2026-05-03 20:39 26.07246 -80.14614 16 ft 0 kts 33°
2026-05-03 21:07 26.07239 -80.14619 16 ft 4 kts 33°
2026-05-03 21:07 26.07219 -80.14633 18 ft 4 kts 36°
2026-05-03 21:08 26.07209 -80.14642 16 ft 0 kts 55°
2026-05-03 21:09 26.07204 -80.14649 16 ft 4 kts 70°
2026-05-03 21:09 26.07203 -80.14672 16 ft 0 kts 111°
2026-05-03 21:13 26.07207 -80.14683 16 ft 4 kts 120°
2026-05-03 21:13 26.07222 -80.14708 16 ft 4 kts 121°
2026-05-03 21:14 26.07231 -80.14734 18 ft 4 kts 91°
2026-05-03 21:14 26.07231 -80.14742 18 ft 4 kts 77°
2026-05-03 21:14 26.07224 -80.14756 16 ft 4 kts 344°
2026-05-03 21:14 26.07213 -80.14742 17 ft 4 kts 274°
2026-05-03 21:15 26.07212 -80.14726 17 ft 2 kts 274°
2026-05-03 21:22 26.07212 -80.14727 17 ft 0 kts 274°
2026-05-03 21:22 26.07212 -80.14730 17 ft 1 kts 274°
2026-05-03 21:22 26.07212 -80.14735 18 ft 1 kts 274°
2026-05-03 21:23 26.07213 -80.14739 17 ft 0 kts 274°
2026-05-03 21:23 26.07213 -80.14743 16 ft 2 kts 274°
2026-05-03 21:24 26.07210 -80.14767 16 ft 4 kts 248°
2026-05-03 21:24 26.07176 -80.14808 16 ft 8 kts 226°
2026-05-03 21:24 26.07137 -80.14856 16 ft 8 kts 235°
2026-05-03 21:24 26.07135 -80.14914 17 ft 8 kts 306°
2026-05-03 21:25 26.07172 -80.14963 16 ft 8 kts 301°
2026-05-03 21:25 26.07149 -80.15015 16 ft 8 kts 237°
2026-05-03 21:25 26.07156 -80.15066 17 ft 7 kts 313°
2026-05-03 21:25 26.07192 -80.15109 17 ft 8 kts 313°
2026-05-03 21:26 26.07247 -80.15127 16 ft 9 kts
2026-05-03 21:26 26.07303 -80.15126 16 ft 0 kts 360°
2026-05-03 21:33 26.07304 -80.15126 16 ft 0 kts 360°
2026-05-03 21:33 26.07315 -80.15127 16 ft 3 kts 359°
2026-05-03 21:34 26.07348 -80.15127 16 ft 7 kts 359°
2026-05-03 21:34 26.07379 -80.15127 19 ft 0 kts
2026-05-03 21:36 26.07390 -80.15127 17 ft 4 kts 360°
2026-05-03 21:36 26.07423 -80.15127 16 ft 6 kts 359°
2026-05-03 21:36 26.07465 -80.15128 16 ft 6 kts 353°
2026-05-03 21:37 26.07490 -80.15180 16 ft 10 kts 274°
2026-05-03 21:37 26.07491 -80.15262 16 ft 11 kts 270°
2026-05-03 21:37 26.07490 -80.15349 16 ft 12 kts 269°
2026-05-03 21:37 26.07490 -80.15440 16 ft 12 kts 269°
2026-05-03 21:38 26.07490 -80.15535 16 ft 12 kts 270°
2026-05-03 21:38 26.07491 -80.15633 16 ft 13 kts 270°
2026-05-03 21:38 26.07491 -80.15735 16 ft 13 kts 271°
2026-05-03 21:38 26.07493 -80.15842 16 ft 14 kts 270°
2026-05-03 21:39 26.07494 -80.15951 16 ft 13 kts 270°
2026-05-03 21:39 26.07494 -80.16026 16 ft 3 kts 270°
2026-05-03 21:39 26.07494 -80.16028 16 ft 0 kts 270°
2026-05-03 21:39 26.07494 -80.16031 16 ft 0 kts 270°
2026-05-03 21:40 26.07494 -80.16040 16 ft 4 kts 269°
2026-05-03 21:40 26.07494 -80.16086 16 ft 6 kts 271°
2026-05-03 21:40 26.07494 -80.16110 16 ft 0 kts 271°
2026-05-03 21:45 26.07494 -80.16126 16 ft 4 kts 270°
2026-05-03 21:46 26.07494 -80.16165 16 ft 6 kts 272°
2026-05-03 21:46 26.07495 -80.16179 16 ft 0 kts 272°
2026-05-03 21:46 26.07495 -80.16182 16 ft 1 kts 271°
2026-05-03 21:47 26.07495 -80.16200 16 ft 3 kts 271°
2026-05-03 21:47 26.07496 -80.16217 16 ft 0 kts 271°
2026-05-03 21:47 26.07496 -80.16218 16 ft 1 kts 271°
2026-05-03 21:47 26.07496 -80.16249 16 ft 5 kts 270°
2026-05-03 21:48 26.07496 -80.16288 16 ft 5 kts 270°
2026-05-03 21:48 26.07495 -80.16331 16 ft 6 kts 270°
2026-05-03 21:48 26.07495 -80.16362 16 ft 0 kts 270°
2026-05-03 21:49 26.07495 -80.16364 16 ft 1 kts 270°
2026-05-03 21:50 26.07495 -80.16382 16 ft 3 kts 269°
2026-05-03 21:50 26.07495 -80.16403 16 ft 3 kts 269°
2026-05-03 21:50 26.07495 -80.16405 16 ft 0 kts 269°
2026-05-03 21:53 26.07495 -80.16408 16 ft 1 kts 269°
2026-05-03 21:53 26.07495 -80.16414 16 ft 0 kts 271°
2026-05-03 21:54 26.07495 -80.16427 16 ft 2 kts 271°
2026-05-03 21:55 26.07495 -80.16446 16 ft 3 kts 270°
2026-05-03 21:55 26.07497 -80.16476 16 ft 4 kts 272°
2026-05-03 21:55 26.07497 -80.16478 16 ft 0 kts 272°
2026-05-03 22:06 26.07497 -80.16493 25 ft 3 kts 271°
2026-05-03 22:06 26.07498 -80.16530 16 ft 6 kts 271°
2026-05-03 22:06 26.07498 -80.16546 16 ft 0 kts 270°
2026-05-03 22:08 26.07498 -80.16549 16 ft 1 kts 270°
2026-05-03 22:09 26.07498 -80.16569 16 ft 4 kts 270°
2026-05-03 22:09 26.07498 -80.16603 16 ft 5 kts 271°
2026-05-03 22:09 26.07502 -80.16619 16 ft 0 kts 287°
2026-05-03 22:10 26.07503 -80.16625 16 ft 2 kts 287°
2026-05-03 22:10 26.07514 -80.16634 17 ft 1 kts 335°
2026-05-03 22:10 26.07514 -80.16635 17 ft 0 kts 335°
2026-05-03 22:12 26.07514 -80.16634 17 ft 0 kts 335°
2026-05-03 22:16 26.07517 -80.16636 16 ft 2 kts 335°
2026-05-03 22:17 26.07534 -80.16643 16 ft 4 kts 348°
2026-05-03 22:17 26.07543 -80.16643 16 ft 0 kts 358°
2026-05-03 22:19 26.07547 -80.16643 16 ft 2 kts 358°
2026-05-03 22:19 26.07564 -80.16643 16 ft 3 kts 358°
2026-05-03 22:19 26.07586 -80.16644 17 ft 0 kts 360°
2026-05-03 22:20 26.07592 -80.16644 17 ft 2 kts 360°
2026-05-03 22:20 26.07597 -80.16644 17 ft 0 kts 359°
2026-05-03 22:22 26.07602 -80.16644 17 ft 2 kts 359°
2026-05-03 22:22 26.07653 -80.16645 18 ft 10 kts 359°
2026-05-03 22:22 26.07696 -80.16596 18 ft 11 kts 88°
2026-05-03 22:22 26.07695 -80.16583 18 ft 0 kts 92°
2026-05-03 22:23 26.07695 -80.16579 18 ft 6 kts 92°
2026-05-03 22:23 26.07692 -80.16242 20 ft 79 kts 89°
2026-05-03 22:23 26.07689 -80.15399 16 ft 135 kts 90°
2026-05-03 22:24 26.07674 -80.14218 243 ft 155 kts 88°
2026-05-03 22:24 26.07650 -80.13085 993 ft 140 kts 88°
2026-05-03 22:24 26.07634 -80.12032 1536 ft 138 kts 86°
2026-05-03 22:24 26.07638 -80.10876 1816 ft 158 kts 88°
2026-05-03 22:25 26.07625 -80.09596 2091 ft 179 kts 90°
2026-05-03 22:25 26.07612 -80.08118 2351 ft 202 kts 88°
2026-05-03 22:25 26.07652 -80.06467 2615 ft 225 kts 87°
2026-05-03 22:25 26.07710 -80.04602 2958 ft 251 kts 88°
2026-05-03 22:26 26.07764 -80.02577 3468 ft 271 kts 88°
2026-05-03 22:26 26.08111 -80.00521 4255 ft 280 kts 66°
2026-05-03 22:26 26.09158 -79.98648 5077 ft 286 kts 52°
2026-05-03 22:26 26.10338 -79.96875 5860 ft 291 kts 52°
2026-05-03 22:27 26.11551 -79.95043 6669 ft 297 kts 52°
2026-05-03 22:27 26.12780 -79.93173 7436 ft 302 kts 52°
2026-05-03 22:27 26.14028 -79.91268 8221 ft 306 kts 52°
2026-05-03 22:27 26.15287 -79.89339 9011 ft 310 kts 52°
2026-05-03 22:28 26.16564 -79.87383 9803 ft 314 kts 52°
2026-05-03 22:28 26.17862 -79.85392 10334 ft 327 kts 52°
2026-05-03 22:28 26.19247 -79.83271 10526 ft 350 kts 52°
2026-05-03 22:28 26.20701 -79.81044 11014 ft 360 kts 52°
2026-05-03 22:29 26.22182 -79.78772 11632 ft 365 kts 52°
2026-05-03 22:29 26.23707 -79.76432 12247 ft 371 kts 52°
2026-05-03 22:29 26.25212 -79.74123 12875 ft 376 kts 52°
2026-05-03 22:29 26.26756 -79.71752 13515 ft 380 kts 52°
2026-05-03 22:30 26.28313 -79.69357 14113 ft 384 kts 52°
2026-05-03 22:30 26.29998 -79.67035 14658 ft 386 kts 44°
2026-05-03 22:30 26.31879 -79.64878 15209 ft 390 kts 43°
2026-05-03 22:30 26.33783 -79.62697 15759 ft 394 kts 43°
2026-05-03 22:31 26.35701 -79.60498 16303 ft 398 kts 43°
2026-05-03 22:31 26.37637 -79.58272 16856 ft 402 kts 43°
2026-05-03 22:31 26.39590 -79.56025 17402 ft 406 kts 43°
2026-05-03 22:31 26.41563 -79.53755 17950 ft 409 kts 43°
2026-05-03 22:32 26.43555 -79.51459 18472 ft 413 kts 43°
2026-05-03 22:32 26.45566 -79.49143 18938 ft 417 kts 43°
2026-05-03 22:32 26.47596 -79.46803 19415 ft 421 kts 43°
2026-05-03 22:32 26.49643 -79.44436 19886 ft 426 kts 43°
2026-05-03 22:33 26.51715 -79.42043 20334 ft 431 kts 43°
2026-05-03 22:33 26.53810 -79.39627 20819 ft 434 kts 42°
2026-05-03 22:33 26.56097 -79.37431 21285 ft 434 kts 32°
2026-05-03 22:33 26.58652 -79.35626 21752 ft 435 kts 27°
2026-05-03 22:34 26.61257 -79.33873 22219 ft 439 kts 27°
2026-05-03 22:34 26.63884 -79.32097 22678 ft 443 kts 27°
2026-05-03 22:34 26.66534 -79.30297 23144 ft 447 kts 27°
2026-05-03 22:34 26.69204 -79.28479 23591 ft 451 kts 27°
2026-05-03 22:35 26.71896 -79.26644 23960 ft 455 kts 27°
2026-05-03 22:35 26.74604 -79.24797 24345 ft 458 kts 27°
2026-05-03 22:35 26.75726 -79.24023 24508 ft 459 kts 27°
2026-05-03 22:36 26.78454 -79.22137 24891 ft 462 kts 27°
2026-05-03 22:36 26.81208 -79.20252 25243 ft 466 kts 27°
2026-05-03 22:36 26.83946 -79.18391 25598 ft 468 kts 26°
2026-05-03 22:36 26.86780 -79.16467 25986 ft 471 kts 26°
2026-05-03 22:37 26.89590 -79.14558 26344 ft 474 kts 26°
2026-05-03 22:37 26.92416 -79.12632 26695 ft 477 kts 26°
2026-05-03 22:37 26.95257 -79.10688 27044 ft 480 kts 26°
2026-05-03 22:37 26.98112 -79.08728 27386 ft 483 kts 26°
2026-05-03 22:38 27.00983 -79.06755 27722 ft 485 kts 26°
2026-05-03 22:38 27.03869 -79.04769 28091 ft 487 kts 27°
2026-05-03 22:38 27.06758 -79.02782 28494 ft 491 kts 26°
2026-05-03 22:38 27.09655 -79.00798 28719 ft 496 kts 26°
2026-05-03 22:39 27.12612 -78.98771 29048 ft 500 kts 26°
2026-05-03 22:39 27.15584 -78.96729 29375 ft 503 kts 26°
2026-05-03 22:39 27.18577 -78.94672 29705 ft 506 kts 26°
2026-05-03 22:39 27.21583 -78.92603 30041 ft 508 kts 26°
2026-05-03 22:40 27.24607 -78.90519 30335 ft 511 kts 26°
2026-05-03 22:40 27.27648 -78.88421 30613 ft 514 kts 26°
2026-05-03 22:40 27.30699 -78.86312 30887 ft 516 kts 26°
2026-05-03 22:40 27.33766 -78.84190 31180 ft 519 kts 26°
2026-05-03 22:41 27.36864 -78.82102 31443 ft 518 kts 22°
2026-05-03 22:41 27.40126 -78.80451 31784 ft 510 kts 13°
2026-05-03 22:41 27.43500 -78.79347 32184 ft 501 kts
2026-05-03 22:41 27.46910 -78.78747 32574 ft 494 kts 359°
2026-05-03 22:42 27.50318 -78.78255 32983 ft 493 kts 359°
2026-05-03 22:42 27.53721 -78.77759 33374 ft 493 kts 359°
2026-05-03 22:42 27.57122 -78.77260 33752 ft 493 kts 359°
2026-05-03 22:42 27.60519 -78.76760 34132 ft 492 kts 358°
2026-05-03 22:43 27.63915 -78.76261 34484 ft 492 kts 358°
2026-05-03 22:43 27.67311 -78.75765 34778 ft 492 kts 358°
2026-05-03 22:43 27.70709 -78.75269 35075 ft 492 kts 357°
2026-05-03 22:43 27.74104 -78.74771 35377 ft 492 kts 357°
2026-05-03 22:44 27.77452 -78.74278 35668 ft 492 kts 357°
2026-05-03 22:44 27.80887 -78.73770 35973 ft 491 kts 357°
2026-05-03 22:44 27.84277 -78.73270 36281 ft 491 kts 357°
2026-05-03 22:44 27.87618 -78.72781 36570 ft 491 kts 357°
2026-05-03 22:45 27.91000 -78.72284 36891 ft 490 kts 356°
2026-05-03 22:45 27.94391 -78.71785 37032 ft 491 kts 356°
2026-05-03 22:45 27.97775 -78.71288 37063 ft 490 kts 356°
2026-05-03 22:46 28.04536 -78.70289 37057 ft 490 kts 356°
2026-05-03 22:46 28.11291 -78.69296 37065 ft 490 kts 356°
2026-05-03 22:47 28.18048 -78.68287 37061 ft 489 kts 356°
2026-05-03 22:47 28.24799 -78.67291 37052 ft 489 kts 356°
2026-05-03 22:48 28.31164 -78.66347 37058 ft 489 kts 356°
2026-05-03 22:48 28.37918 -78.65347 37062 ft 490 kts 356°
2026-05-03 22:49 28.44676 -78.64341 37073 ft 490 kts 356°
2026-05-03 22:49 28.51436 -78.63327 37105 ft 490 kts 355°
2026-05-03 22:50 28.58203 -78.62317 37089 ft 491 kts 355°
2026-05-03 22:50 28.64976 -78.61312 37083 ft 491 kts 355°
2026-05-03 22:51 28.71687 -78.60315 37086 ft 491 kts 356°
2026-05-03 22:51 28.78469 -78.59299 37122 ft 492 kts 355°
2026-05-03 22:52 28.84114 -78.58449 37114 ft 493 kts 355°
2026-05-03 22:52 28.90914 -78.57429 37107 ft 493 kts 355°
2026-05-03 22:53 28.97719 -78.56400 37105 ft 493 kts 355°
2026-05-03 22:53 29.04526 -78.55379 37110 ft 493 kts 355°
2026-05-03 22:54 29.11342 -78.54353 37090 ft 493 kts 355°
2026-05-03 22:54 29.18155 -78.53332 37089 ft 494 kts 355°
2026-05-03 22:55 29.24985 -78.52302 37098 ft 496 kts 355°
2026-05-03 22:55 29.31824 -78.51260 37105 ft 496 kts 355°
2026-05-03 22:56 29.38671 -78.50218 37140 ft 496 kts 355°
2026-05-03 22:56 29.45473 -78.49184 37133 ft 497 kts 355°
2026-05-03 22:56 29.48876 -78.48875 37132 ft 483 kts 346°
2026-05-03 22:57 29.52172 -78.49104 37134 ft 471 kts 341°
2026-05-03 22:57 29.58694 -78.49824 37131 ft 471 kts 341°
2026-05-03 22:58 29.64794 -78.50485 37104 ft 470 kts 341°
2026-05-03 22:58 29.71301 -78.51176 37103 ft 470 kts 341°
2026-05-03 22:59 29.77814 -78.51876 37110 ft 471 kts 341°
2026-05-03 22:59 29.84340 -78.52580 37120 ft 471 kts 341°
2026-05-03 23:00 29.90871 -78.53292 37173 ft 472 kts 341°
2026-05-03 23:00 29.97401 -78.54013 37125 ft 471 kts 341°
2026-05-03 23:01 30.03939 -78.54723 37128 ft 472 kts 341°
2026-05-03 23:01 30.10489 -78.55428 37131 ft 473 kts 341°
2026-05-03 23:02 30.17154 -78.55617 37134 ft 495 kts 355°
2026-05-03 23:02 30.24015 -78.54629 37139 ft 497 kts 355°
2026-05-03 23:03 30.30877 -78.53634 37145 ft 497 kts 355°
2026-05-03 23:03 30.37735 -78.52649 37146 ft 497 kts 355°
2026-05-03 23:04 30.44615 -78.51648 37154 ft 498 kts 355°
2026-05-03 23:04 30.51509 -78.50550 37130 ft 501 kts 355°
2026-05-03 23:05 30.58376 -78.49401 37131 ft 502 kts 356°
2026-05-03 23:05 30.65303 -78.48259 37134 ft 503 kts 355°
2026-05-03 23:06 30.72236 -78.47134 37137 ft 503 kts 355°
2026-05-03 23:06 30.79175 -78.46009 37132 ft 503 kts 355°
2026-05-03 23:07 30.86120 -78.44884 37117 ft 505 kts 356°
2026-05-03 23:07 30.93101 -78.43744 37119 ft 508 kts 356°
2026-05-03 23:08 31.00118 -78.42597 37163 ft 510 kts 356°
2026-05-03 23:08 31.07157 -78.41451 37146 ft 511 kts 356°
2026-05-03 23:09 31.14210 -78.40293 37144 ft 512 kts 356°
2026-05-03 23:09 31.21274 -78.39132 37148 ft 513 kts 356°
2026-05-03 23:10 31.28345 -78.37969 37195 ft 514 kts 356°
2026-05-03 23:10 31.35426 -78.36798 37175 ft 514 kts 356°
2026-05-03 23:11 31.42514 -78.35633 37163 ft 514 kts 356°
2026-05-03 23:11 31.49605 -78.34469 37162 ft 515 kts 356°
2026-05-03 23:12 31.56697 -78.33301 37163 ft 515 kts 356°
2026-05-03 23:12 31.63767 -78.32124 37145 ft 513 kts 356°
2026-05-03 23:13 31.70832 -78.30943 37152 ft 513 kts 356°
2026-05-03 23:13 31.77899 -78.29766 37156 ft 513 kts 356°
2026-05-03 23:14 31.84970 -78.28583 37186 ft 513 kts 356°
2026-05-03 23:14 31.91995 -78.27418 37180 ft 513 kts 356°
2026-05-03 23:15 31.99064 -78.26238 37172 ft 513 kts 356°
2026-05-03 23:15 32.06134 -78.25084 37170 ft 512 kts 355°
2026-05-03 23:16 32.13182 -78.24060 37153 ft 508 kts 354°
2026-05-03 23:16 32.20199 -78.23085 37152 ft 508 kts 354°
2026-05-03 23:17 32.27216 -78.22081 37158 ft 509 kts 355°
2026-05-03 23:17 32.34248 -78.21047 37203 ft 509 kts 355°
2026-05-03 23:18 32.41274 -78.20006 37192 ft 509 kts 355°
2026-05-03 23:18 32.48292 -78.18961 37184 ft 508 kts 355°
2026-05-03 23:19 32.55300 -78.17931 37176 ft 507 kts 355°
2026-05-03 23:19 32.62303 -78.16903 37168 ft 506 kts 355°
2026-05-03 23:20 32.69268 -78.15875 37158 ft 504 kts 355°
2026-05-03 23:20 32.76224 -78.14843 37162 ft 504 kts 355°
2026-05-03 23:21 32.83179 -78.13818 37154 ft 504 kts 354°
2026-05-03 23:21 32.90134 -78.12796 37160 ft 504 kts 355°
2026-05-03 23:22 33.00568 -78.11245 37160 ft 504 kts 355°
2026-05-03 23:22 33.07525 -78.10202 37161 ft 504 kts 355°
2026-05-03 23:23 33.14479 -78.09159 37153 ft 502 kts 355°
2026-05-03 23:23 33.21372 -78.08126 37149 ft 498 kts 355°
2026-05-03 23:24 33.28255 -78.07107 37143 ft 498 kts 355°
2026-05-03 23:24 33.35139 -78.06071 37145 ft 499 kts 355°
2026-05-03 23:25 33.42025 -78.05036 37171 ft 498 kts 355°
2026-05-03 23:25 33.48901 -78.04010 37167 ft 498 kts 355°
2026-05-03 23:26 33.55770 -78.02983 37155 ft 497 kts 355°
2026-05-03 23:26 33.62632 -78.01943 37146 ft 497 kts 355°
2026-05-03 23:27 33.69469 -78.00901 37121 ft 493 kts 355°
2026-05-03 23:27 33.76262 -77.99873 37106 ft 492 kts 355°
2026-05-03 23:28 33.83058 -77.98857 37108 ft 492 kts 355°
2026-05-03 23:28 33.89860 -77.97826 37155 ft 492 kts 355°
2026-05-03 23:29 33.96589 -77.96769 37125 ft 490 kts 355°
2026-05-03 23:29 34.03348 -77.95700 37102 ft 490 kts 355°
2026-05-03 23:30 34.10107 -77.94645 37098 ft 490 kts 355°
2026-05-03 23:30 34.16875 -77.93585 37149 ft 491 kts 355°
2026-05-03 23:31 34.23642 -77.92516 37139 ft 490 kts 355°
2026-05-03 23:31 34.30394 -77.91450 37133 ft 489 kts 355°
2026-05-03 23:32 34.37138 -77.90391 37129 ft 488 kts 355°
2026-05-03 23:32 34.43861 -77.89336 37104 ft 484 kts 355°
2026-05-03 23:33 34.50526 -77.88274 37097 ft 483 kts 355°
2026-05-03 23:33 34.57195 -77.87224 37096 ft 483 kts 355°
2026-05-03 23:34 34.63863 -77.86165 37105 ft 484 kts 355°
2026-05-03 23:34 34.70526 -77.85103 37125 ft 482 kts 356°
2026-05-03 23:35 34.77178 -77.84039 37121 ft 482 kts 356°
2026-05-03 23:35 34.83822 -77.82977 37119 ft 482 kts 356°
2026-05-03 23:36 34.90471 -77.81280 37144 ft 494 kts
2026-05-03 23:36 34.97075 -77.79040 37109 ft 492 kts
2026-05-03 23:37 35.03671 -77.76796 37107 ft 492 kts
2026-05-03 23:37 35.10224 -77.74565 37112 ft 492 kts
2026-05-03 23:38 35.16828 -77.72327 37144 ft 492 kts
2026-05-03 23:38 35.23426 -77.70086 37131 ft 492 kts
2026-05-03 23:39 35.30014 -77.67849 37123 ft 491 kts
2026-05-03 23:39 35.36599 -77.65612 37120 ft 491 kts
2026-05-03 23:40 35.42073 -77.63746 37122 ft 491 kts
2026-05-03 23:40 35.48655 -77.61491 37122 ft 491 kts
2026-05-03 23:41 35.55235 -77.59227 37108 ft 491 kts
2026-05-03 23:41 35.61820 -77.56966 37148 ft 491 kts
2026-05-03 23:42 35.68372 -77.54711 37099 ft 488 kts
2026-05-03 23:42 35.74909 -77.52460 37102 ft 488 kts
2026-05-03 23:43 35.81455 -77.50299 37104 ft 486 kts
2026-05-03 23:43 35.88003 -77.48195 37137 ft 486 kts
2026-05-03 23:44 35.94543 -77.46080 37128 ft 486 kts
2026-05-03 23:44 36.01074 -77.43942 37120 ft 485 kts
2026-05-03 23:45 36.07600 -77.41803 37115 ft 485 kts
2026-05-03 23:45 36.14102 -77.39663 37082 ft 481 kts
2026-05-03 23:46 36.20571 -77.37531 37085 ft 481 kts
2026-05-03 23:46 36.27003 -77.35425 37090 ft 481 kts
2026-05-03 23:47 36.33482 -77.33294 37136 ft 482 kts
2026-05-03 23:47 36.39960 -77.31150 37126 ft 481 kts
2026-05-03 23:48 36.46470 -77.28980 37121 ft 481 kts
2026-05-03 23:48 36.52931 -77.26820 37114 ft 481 kts
2026-05-03 23:49 36.59380 -77.24671 37090 ft 477 kts
2026-05-03 23:49 36.65785 -77.22546 37091 ft 476 kts
2026-05-03 23:50 36.72197 -77.20422 37086 ft 477 kts
2026-05-03 23:50 36.78620 -77.18288 37124 ft 478 kts
2026-05-03 23:51 36.85001 -77.16155 37110 ft 478 kts
2026-05-03 23:51 36.91471 -77.13985 37108 ft 478 kts
2026-05-03 23:52 36.97855 -77.11841 37106 ft 478 kts
2026-05-03 23:52 37.04275 -77.09678 37073 ft 476 kts
2026-05-03 23:53 37.10649 -77.07528 37070 ft 474 kts
2026-05-03 23:53 37.17025 -77.05374 37076 ft 475 kts
2026-05-03 23:54 37.23413 -77.03213 37082 ft 476 kts
2026-05-03 23:54 37.29800 -77.01035 37115 ft 476 kts
2026-05-03 23:55 37.36188 -76.98870 37108 ft 475 kts
2026-05-03 23:55 37.42573 -76.96720 37103 ft 475 kts
2026-05-03 23:56 37.48843 -76.93753 37083 ft 493 kts 18°
2026-05-03 23:56 37.54875 -76.89716 37071 ft 490 kts 18°
2026-05-03 23:57 37.60905 -76.85690 37080 ft 491 kts 18°
2026-05-03 23:57 37.66949 -76.81665 37082 ft 491 kts 18°
2026-05-03 23:58 37.73003 -76.77639 37083 ft 492 kts 18°
2026-05-03 23:58 37.79059 -76.73583 37082 ft 493 kts 18°
2026-05-03 23:59 37.85115 -76.69525 37078 ft 493 kts 18°
2026-05-03 23:59 37.91182 -76.65509 37094 ft 491 kts 17°
2026-05-04 00:00 37.97275 -76.61656 37065 ft 488 kts 16°
2026-05-04 00:00 38.03333 -76.57887 37063 ft 489 kts 16°
2026-05-04 00:01 38.09427 -76.54049 37068 ft 489 kts 17°
2026-05-04 00:01 38.15510 -76.50163 37045 ft 488 kts 17°
2026-05-04 00:02 38.21562 -76.46274 37045 ft 488 kts 17°
2026-05-04 00:02 38.27629 -76.42385 37053 ft 489 kts 18°
2026-05-04 00:03 38.30561 -76.40089 37052 ft 502 kts 28°
2026-05-04 00:03 38.33347 -76.37396 37096 ft 504 kts 29°
2026-05-04 00:03 38.38913 -76.31949 37084 ft 504 kts 29°
2026-05-04 00:04 38.44472 -76.26490 37077 ft 504 kts 29°
2026-05-04 00:04 38.50018 -76.21050 37075 ft 501 kts 29°
2026-05-04 00:05 38.55544 -76.15639 37114 ft 499 kts 29°
2026-05-04 00:05 38.58274 -76.12946 36805 ft 494 kts 29°
2026-05-04 00:05 38.60986 -76.10265 36292 ft 492 kts 29°
2026-05-04 00:06 38.63694 -76.07597 35758 ft 490 kts 28°
2026-05-04 00:06 38.66435 -76.04972 34670 ft 499 kts 27°
2026-05-04 00:06 38.69262 -76.02346 33061 ft 503 kts 26°
2026-05-04 00:06 38.72111 -75.99739 31731 ft 501 kts 26°
2026-05-04 00:07 38.74905 -75.97168 30902 ft 488 kts 26°
2026-05-04 00:07 38.77618 -75.94646 30267 ft 473 kts 26°
2026-05-04 00:07 38.80211 -75.92205 29984 ft 454 kts 26°
2026-05-04 00:07 38.82700 -75.89849 29438 ft 438 kts 26°
2026-05-04 00:08 38.85118 -75.87559 28937 ft 428 kts 26°
2026-05-04 00:08 38.87514 -75.85309 28418 ft 426 kts 26°
2026-05-04 00:08 38.89906 -75.83079 27916 ft 424 kts 26°
2026-05-04 00:08 38.92289 -75.80858 27422 ft 422 kts 26°
2026-05-04 00:09 38.94661 -75.78643 26949 ft 421 kts 26°
2026-05-04 00:09 38.97017 -75.76431 26765 ft 420 kts 27°
2026-05-04 00:09 38.99381 -75.74204 26557 ft 422 kts 27°
2026-05-04 00:09 39.01742 -75.71971 26346 ft 421 kts 27°
2026-05-04 00:10 39.04093 -75.69736 26127 ft 419 kts 27°
2026-05-04 00:10 39.06433 -75.67507 25917 ft 418 kts 27°
2026-05-04 00:10 39.08767 -75.65282 25709 ft 416 kts 27°
2026-05-04 00:10 39.11089 -75.63070 25498 ft 415 kts 27°
2026-05-04 00:11 39.13408 -75.60871 25326 ft 413 kts 27°
2026-05-04 00:11 39.15718 -75.58681 25082 ft 410 kts 27°
2026-05-04 00:11 39.17663 -75.56830 24909 ft 409 kts 28°
2026-05-04 00:11 39.19947 -75.54654 24706 ft 408 kts 28°
2026-05-04 00:12 39.22223 -75.52484 24499 ft 406 kts 28°
2026-05-04 00:12 39.24497 -75.50337 24303 ft 404 kts 27°
2026-05-04 00:12 39.26793 -75.48257 24096 ft 402 kts 26°
2026-05-04 00:12 39.29096 -75.46233 23903 ft 400 kts 25°
2026-05-04 00:13 39.31399 -75.44234 23705 ft 399 kts 25°
2026-05-04 00:13 39.33697 -75.42241 23532 ft 397 kts 26°
2026-05-04 00:13 39.35983 -75.40247 23275 ft 395 kts 26°
2026-05-04 00:13 39.38251 -75.38248 23079 ft 394 kts 27°
2026-05-04 00:14 39.40509 -75.36241 22881 ft 393 kts 27°
2026-05-04 00:14 39.42755 -75.34232 22685 ft 392 kts 27°
2026-05-04 00:14 39.44962 -75.32254 22489 ft 391 kts 27°
2026-05-04 00:14 39.47194 -75.30256 22294 ft 389 kts 27°
2026-05-04 00:15 39.49418 -75.28267 22097 ft 388 kts 27°
2026-05-04 00:15 39.51637 -75.26276 21838 ft 388 kts 27°
2026-05-04 00:15 39.53836 -75.24251 21373 ft 387 kts 29°
2026-05-04 00:15 39.56007 -75.22210 20940 ft 383 kts 29°
2026-05-04 00:16 39.58144 -75.20181 20520 ft 379 kts 30°
2026-05-04 00:16 39.60264 -75.18168 20114 ft 376 kts 30°
2026-05-04 00:16 39.62370 -75.16177 19705 ft 373 kts 29°
2026-05-04 00:16 39.64461 -75.14207 19304 ft 370 kts 29°
2026-05-04 00:17 39.66538 -75.12256 18902 ft 368 kts 29°
2026-05-04 00:17 39.68610 -75.10330 18496 ft 365 kts 28°
2026-05-04 00:17 39.70700 -75.08486 18083 ft 361 kts 27°
2026-05-04 00:17 39.72791 -75.06702 17685 ft 358 kts 27°
2026-05-04 00:18 39.74872 -75.04951 17290 ft 355 kts 26°
2026-05-04 00:18 39.76942 -75.03208 16910 ft 353 kts 26°
2026-05-04 00:18 39.78992 -75.01469 16525 ft 350 kts 27°
2026-05-04 00:18 39.81018 -74.99729 16146 ft 348 kts 27°
2026-05-04 00:19 39.83025 -74.97990 15770 ft 345 kts 27°
2026-05-04 00:19 39.85013 -74.96266 15402 ft 342 kts 28°
2026-05-04 00:19 39.86980 -74.94532 15028 ft 340 kts 28°
2026-05-04 00:19 39.88919 -74.92783 14658 ft 338 kts 29°
2026-05-04 00:20 39.90835 -74.91033 14293 ft 335 kts 29°
2026-05-04 00:20 39.92653 -74.89132 13934 ft 337 kts 40°
2026-05-04 00:20 39.94233 -74.86891 13536 ft 334 kts 43°
2026-05-04 00:20 39.95780 -74.84659 13171 ft 329 kts 43°
2026-05-04 00:21 39.97290 -74.82492 12817 ft 326 kts 42°
2026-05-04 00:21 39.98811 -74.80320 12470 ft 323 kts 42°
2026-05-04 00:21 40.00318 -74.78165 12112 ft 321 kts 42°
2026-05-04 00:21 40.01801 -74.76039 11908 ft 311 kts 42°
2026-05-04 00:22 40.03231 -74.73979 11730 ft 302 kts 42°
2026-05-04 00:22 40.04632 -74.71963 11417 ft 298 kts 42°
2026-05-04 00:22 40.06023 -74.69963 11074 ft 296 kts 42°
2026-05-04 00:22 40.07403 -74.67982 10740 ft 294 kts 41°
2026-05-04 00:23 40.08775 -74.66016 10380 ft 292 kts 41°
2026-05-04 00:23 40.10136 -74.64064 10071 ft 289 kts 41°
2026-05-04 00:23 40.11474 -74.62143 9967 ft 284 kts 41°
2026-05-04 00:23 40.12804 -74.60235 9977 ft 284 kts 41°
2026-05-04 00:24 40.14135 -74.58321 9975 ft 285 kts 41°
2026-05-04 00:24 40.15466 -74.56405 9977 ft 285 kts 41°
2026-05-04 00:24 40.16794 -74.54487 9977 ft 285 kts 41°
2026-05-04 00:24 40.18122 -74.52567 9977 ft 285 kts 41°
2026-05-04 00:25 40.19449 -74.50649 9865 ft 283 kts 41°
2026-05-04 00:25 40.20778 -74.48761 9490 ft 281 kts 39°
2026-05-04 00:25 40.22157 -74.46960 9119 ft 279 kts 38°
2026-05-04 00:25 40.23561 -74.45206 8745 ft 279 kts 37°